Weather History for KIFA - November, 2012

Change the Weather History Date:

Friday, November 16, 2012

  Actual Average Record
Temperature  
Mean Temperature 37 °F -  
Max Temperature 51 °F 45 °F 75 °F (1953)
Min Temperature 23 °F 25 °F -2 °F (1959)
Degree Days  
Heating Degree Days 28    
Moisture  
Dew Point 27 °F    
Average Humidity 73    
Maximum Humidity 87    
Minimum Humidity 43    
Precipitation  
Precipitation 0.00 in - - ()
Sea Level Pressure  
Sea Level Pressure 30.42 in    
Wind  
Wind Speed 5 mph (SE)    
Max Wind Speed 10 mph    
Max Gust Speed -    
Visibility 10 miles    
Events      
Averages and records for this station are not official NWS values.
T = Trace of Precipitation, MM = Missing Value Source: NWS Daily Summary

Daily Weather History Graph

Daily Weather History Graph

Search for Another Location

Airport or City:

Trip Planner

Search our weather history database for the weather conditions in past years. The results will help you decide how hot, cold, wet, or windy it might be!

Date:

Astronomy

Nov. 16, 2012 Rise Set
Actual Time 7:06 AM CST 4:49 PM CST
Civil Twilight 6:35 AM CST 5:19 PM CST
Nautical Twilight 6:01 AM CST 5:54 PM CST
Astronomical Twilight 5:28 AM CST 6:27 PM CST
Moon 10:02 AM CST (11/16) 7:49 PM CST (11/16)
Length of Visible Light 10h 44m
Length of Day
9h 43m
Waxing Crescent, 12% of the Moon is Illuminated
Nov 16
Waxing Crescent
Nov 20
First Quarter
Nov 28
Full
Dec 6
Last Quarter
Dec 13
New

Hourly Weather History & Observations

Time (CST) Temp. Windchill Dew Point Humidity Pressure Visibility Wind Dir Wind Speed Gust Speed Precip Events Conditions
12:15 AM 29.8 °F 23.9 °F 26.4 °F 87% 30.42 in 10.0 mi NNW 5.8 mph - N/A   Clear
12:35 AM 30.4 °F 22.9 °F 26.6 °F 86% 30.42 in 10.0 mi NNW 8.1 mph - N/A   Clear
12:55 AM 29.3 °F 21.5 °F 25.7 °F 86% 30.42 in 10.0 mi NNW 8.1 mph - N/A   Clear
1:15 AM 29.5 °F 21.1 °F 25.7 °F 86% 30.42 in 10.0 mi NNW 9.2 mph - N/A   Clear
1:35 AM 29.7 °F 22.0 °F 25.3 °F 84% 30.42 in 10.0 mi NNW 8.1 mph - N/A   Clear
1:55 AM 29.3 °F 23.2 °F 24.8 °F 83% 30.43 in 10.0 mi North 5.8 mph - N/A   Clear
2:15 AM 28.2 °F 22.0 °F 23.9 °F 84% 30.44 in 10.0 mi NNW 5.8 mph - N/A   Clear
2:35 AM 27.5 °F 20.2 °F 23.0 °F 83% 30.44 in 10.0 mi NNW 6.9 mph - N/A   Clear
2:55 AM 27.0 °F 21.6 °F 22.6 °F 84% 30.44 in 10.0 mi NNW 4.6 mph - N/A   Clear
3:15 AM 27.1 °F 21.8 °F 22.3 °F 82% 30.44 in 10.0 mi NNW 4.6 mph - N/A   Clear
3:35 AM 27.0 °F 23.0 °F 21.9 °F 81% 30.44 in 10.0 mi NNW 3.5 mph - N/A   Clear
4:15 AM 26.4 °F 22.4 °F 21.2 °F 81% 30.43 in 10.0 mi NNW 3.5 mph - N/A   Clear
4:35 AM 25.7 °F - 20.8 °F 82% 30.44 in 10.0 mi Calm Calm - N/A   Clear
5:15 AM 25.2 °F 20.9 °F 20.3 °F 82% 30.43 in 10.0 mi NW 3.5 mph - N/A   Clear
5:35 AM 23.9 °F 18.0 °F 19.6 °F 84% 30.44 in 10.0 mi NW 4.6 mph - N/A   Clear
5:55 AM 23.4 °F 17.4 °F 19.4 °F 85% 30.44 in 10.0 mi NNW 4.6 mph - N/A   Clear
6:15 AM 23.4 °F 18.9 °F 19.4 °F 85% 30.43 in 10.0 mi North 3.5 mph - N/A   Clear
6:35 AM 23.5 °F - 19.4 °F 84% 30.43 in 10.0 mi Calm Calm - N/A   Clear
7:15 AM 23.5 °F - 19.2 °F 84% 30.44 in 10.0 mi Calm Calm - N/A   Clear
7:35 AM 23.0 °F - 18.9 °F 84% 30.45 in 10.0 mi Calm Calm - N/A   Clear
7:55 AM 23.2 °F - 19.0 °F 84% 30.45 in 10.0 mi Calm Calm - N/A   Clear
8:15 AM 25.0 °F - 21.0 °F 85% 30.45 in 10.0 mi Calm Calm - N/A   Clear
8:35 AM 28.8 °F 25.0 °F 22.1 °F 76% 30.45 in 10.0 mi NNE 3.5 mph - N/A   Clear
8:55 AM 30.4 °F - 22.3 °F 72% 30.45 in 10.0 mi Calm Calm - N/A   Clear
9:15 AM 31.8 °F 28.5 °F 22.6 °F 69% 30.45 in 10.0 mi NE 3.5 mph - N/A   Clear
9:35 AM 33.4 °F 30.4 °F 24.4 °F 70% 30.46 in 10.0 mi NE 3.5 mph - N/A   Clear
9:55 AM 35.8 °F 33.0 °F 25.7 °F 67% 30.46 in 10.0 mi East 3.5 mph - N/A   Clear
10:15 AM 37.9 °F 35.5 °F 27.0 °F 65% 30.46 in 10.0 mi ENE 3.5 mph - N/A   Clear
10:35 AM 39.6 °F 37.4 °F 27.5 °F 62% 30.47 in 10.0 mi SE 3.5 mph - N/A   Clear
10:55 AM 41.0 °F - 28.6 °F 61% 30.47 in 7.0 mi Calm Calm - N/A   Clear
11:15 AM 42.3 °F - 29.7 °F 61% 30.47 in 7.0 mi Calm Calm - N/A   Clear
11:35 AM 44.1 °F 42.5 °F 30.4 °F 59% 30.46 in 7.0 mi SSW 3.5 mph - N/A   Clear
12:15 PM 46.9 °F - 31.8 °F 56% 30.45 in 7.0 mi South 5.8 mph - N/A   Clear
12:35 PM 47.8 °F - 31.8 °F 54% 30.45 in 5.0 mi SW 5.8 mph - N/A   Haze
1:15 PM 49.1 °F - 31.5 °F 51% 30.44 in 7.0 mi WSW 5.8 mph - N/A   Clear
1:35 PM 50.0 °F - 31.3 °F 49% 30.43 in 7.0 mi SW 5.8 mph - N/A   Clear
1:55 PM 50.5 °F - 31.1 °F 47% 30.42 in 10.0 mi Calm Calm - N/A   Clear
2:15 PM 50.5 °F - 30.4 °F 46% 30.41 in 10.0 mi Calm Calm - N/A   Clear
2:35 PM 51.3 °F - 30.6 °F 45% 30.41 in 10.0 mi South 3.5 mph - N/A   Clear
3:15 PM 51.4 °F - 29.7 °F 43% 30.40 in 10.0 mi SSW 4.6 mph - N/A   Clear
3:35 PM 51.1 °F - 30.2 °F 45% 30.40 in 10.0 mi SSE 4.6 mph - N/A   Clear
3:55 PM 50.5 °F - 30.2 °F 46% 30.40 in 10.0 mi South 4.6 mph - N/A   Clear
4:15 PM 49.6 °F - 30.7 °F 48% 30.39 in 10.0 mi SE 5.8 mph - N/A   Clear
4:35 PM 47.3 °F - 32.0 °F 55% 30.39 in 10.0 mi SE 5.8 mph - N/A   Clear
4:55 PM 44.8 °F 42.4 °F 31.1 °F 59% 30.38 in 10.0 mi SE 4.6 mph - N/A   Clear
5:35 PM 40.5 °F 36.5 °F 30.6 °F 68% 30.38 in 10.0 mi SSE 5.8 mph - N/A   Clear
5:55 PM 37.2 °F 32.6 °F 29.5 °F 74% 30.38 in 10.0 mi SE 5.8 mph - N/A   Clear
6:15 PM 35.4 °F 30.5 °F 28.9 °F 77% 30.38 in 10.0 mi SE 5.8 mph - N/A   Clear
6:35 PM 35.1 °F 29.3 °F 29.8 °F 81% 30.38 in 10.0 mi SE 6.9 mph - N/A   Clear
6:55 PM 36.9 °F 31.4 °F 30.0 °F 76% 30.38 in 10.0 mi SE 6.9 mph - N/A   Clear
7:15 PM 37.2 °F 31.9 °F 30.7 °F 77% 30.37 in 10.0 mi SE 6.9 mph - N/A   Clear
7:55 PM 36.9 °F 32.2 °F 30.7 °F 79% 30.36 in 10.0 mi SE 5.8 mph - N/A   Clear
8:15 PM 34.5 °F 27.9 °F 29.3 °F 81% 30.36 in 10.0 mi SE 8.1 mph - N/A   Clear
8:35 PM 36.0 °F 29.6 °F 30.7 °F 81% 30.36 in 10.0 mi SE 8.1 mph - N/A   Clear
8:55 PM 33.4 °F 27.3 °F 29.1 °F 84% 30.36 in 10.0 mi SE 6.9 mph - N/A   Clear
9:15 PM 32.9 °F 25.9 °F 29.1 °F 86% 30.37 in 10.0 mi SE 8.1 mph - N/A   Clear
9:35 PM 32.4 °F 24.0 °F 28.8 °F 87% 30.37 in 10.0 mi SSE 10.4 mph - N/A   Clear
9:55 PM 32.2 °F 25.8 °F 28.8 °F 87% 30.37 in 10.0 mi SSE 6.9 mph - N/A   Clear
10:15 PM 32.2 °F 24.4 °F 28.4 °F 86% 30.37 in 10.0 mi SSE 9.2 mph - N/A   Clear
10:35 PM 32.2 °F 24.4 °F 28.6 °F 87% 30.37 in 10.0 mi SSE 9.2 mph - N/A   Clear
10:55 PM 32.0 °F 25.6 °F 28.2 °F 86% 30.37 in 10.0 mi SE 6.9 mph - N/A   Clear
11:15 PM 32.0 °F 24.8 °F 28.2 °F 86% 30.37 in 10.0 mi SE 8.1 mph - N/A   Clear
11:55 PM 32.0 °F 23.6 °F 28.4 °F 87% 30.37 in 7.0 mi SSE 10.4 mph - N/A   Clear